Content
SEND FEEDBACK

Daily
Averages
Monthly
Summary
United States of America

LARIMORE, NORTH DAKOTA


Home > North America > United States > North Dakota
Elevation: 1124 feet     Latitude: 47 57N     Longitude: 097 40W

WEATHER
 
SELECT A DAY
Number of Records: 201,103;   Date Range: 1/1/95 - 10/23/14
 
SHARE

PRINT THIS DATA

[ ← Previous Day ]
WEATHER ALMANAC - JULY 12, 2014
[ Next Day → ]
[ °C ]   °F
Weather ElementAverageHighLow
Temperature65.2 °F80.1 °F (12:53 pm)54 °F (7:53 am)
Dewpoint55.1 °F57.9 °F (3:53 am)52 °F (12:53 am)
Humidity72.9 %93 % (12:53 am)42 % (1:53 pm)
Barometer29.98 in30.04 in (5:53 pm)29.88 in (12:53 am)
Wind Speed9.9 mph28.8 mph (6:53 pm)
Wind Gust41.4 mph (7:01 pm)
Weather ElementAverage
Visibility9.9 mi
Wind DirectionWNW (284.6 °)

Weather ElementTotal
Precipitation0.03 in
Cooling Degree Days2.1 (Base 65)
Growing Degree Days17.1 (Base 50)
Averaged from 24 records on July 12, 2014
WEATHER CONDITIONS BREAKOUT
WIND DIRECTION BREAKOUT
WEATHER BY HOUR - JULY 12, 2014
[ °C ]   °F
Local TimeTemperatureDewpointHumidityBarometerVisibilityWind DirectionWind SpeedGust SpeedPrecipitationEventsConditions
12:53 AM60.1 °F55.9 °F86 %30.03 in10.0 miWest (280°)6.9 mphClear
1:53 AM60.1 °F55.9 °F86 %30.01 in10.0 miWNW (300°)4.6 mphClear
2:53 AM57.0 °F54.0 °F89 %30.02 in10.0 miWest (260°)6.9 mphClear
3:53 AM57.0 °F54.0 °F89 %30.02 in10.0 miWNW (290°)6.9 mphClear
4:53 AM55.0 °F53.1 °F93 %30.01 in10.0 miWNW (300°)4.6 mphClear
5:53 AM55.0 °F52.0 °F89 %30.02 in10.0 miWest (270°)4.6 mphMostly Cloudy
6:53 AM57.9 °F55.0 °F90 %30.02 in10.0 miWSW (250°)3.5 mphMostly Cloudy
7:53 AM62.1 °F57.0 °F84 %30.03 in10.0 miWest (280°)3.5 mphMostly Cloudy
8:53 AM64.0 °F57.9 °F80 %30.03 in10.0 miWest (270°)3.5 mphMostly Cloudy
9:53 AM68.0 °F57.0 °F68 %30.04 in10.0 miWSW (240°)4.6 mphOvercast
10:53 AM70.0 °F57.0 °F63 %30.02 in9.0 miSW (220°)9.2 mphOvercast
12:53 PM75.9 °F55.9 °F50 %29.98 in10.0 miWest (270°)11.5 mphOvercast
1:53 PM77.0 °F55.9 °F48 %29.96 in10.0 miWest (280°)15.0 mph20.7 mphMostly Cloudy
2:53 PM77.0 °F55.9 °F48 %29.93 in10.0 miWest (270°)13.8 mphMostly Cloudy
3:53 PM79.0 °F55.9 °F45 %29.91 in10.0 miWest (270°)18.4 mph23.0 mphMostly Cloudy
4:53 PM80.1 °F55.0 °F42 %29.89 in10.0 miWNW (290°)17.3 mph28.8 mphScattered Clouds
5:53 PM79.0 °F54.0 °F42 %29.88 in10.0 miWest (280°)18.4 mph25.3 mphPartly Cloudy
6:53 PM71.1 °F52.0 °F51 %29.92 in10.0 miNorth (350°)28.8 mph40.3 mphMostly Cloudy
7:01 PM68.0 °F53.6 °F60 %29.92 in10.0 miNorth (350°)23.0 mph41.4 mph0.00 inRainLight Rain
7:53 PM62.1 °F55.9 °F80 %29.96 in10.0 miNNW (340°)12.7 mph20.7 mph0.00 inRainLight Rain
8:53 PM61.0 °F57.9 °F90 %29.94 in10.0 miNW (320°)4.6 mph0.03 inRainLight Rain
9:53 PM59.0 °F55.9 °F90 %29.94 in10.0 miWNW (300°)5.8 mph0.00 inScattered Clouds
10:53 PM55.9 °F54.0 °F93 %29.96 in10.0 miWest (280°)4.6 mphClear
11:53 PM54.0 °F52.0 °F93 %29.96 in8.0 miWest (270°)5.8 mphClear
Hourly data recorded from KGFK, located miles away from Larimore, North Dakota







STORIES FROM OUR PARTNERS